[[{"header":{"parameterUnit":"m.s-1","parameterCategory":2,"la1":30.2991,"la2":30.254,"lo1":-89.0895,"lo2":-89.0444,"dy":0.0017,"dx":0.0017,"nx":28,"ny":28,"refTime":"2024-09-29T03:00:00:Z","depth":"0","parameterNumber":2,"parameterNumberName":"U-component_of_CURRENTS"},"data":[0,0,0,0,0,0,0,0,0,0,0,0,0,0,0,0,0,0,0,0,0,0,0,0,0,0,0,0,0,0,0,0,0,0,0,0,0,0,0,0,0,0,0,0,0,0,0,0,0,0,0,0,0,0,0,0,0,0,0.2019,0.2019,0,0.2024,0.2024,0.2024,0.1991,0.199,0.199,0.1989,0.2041,0.2043,0.2045,0,0,0,0,0,0,0,0,0,0,0,0,0,0.2012,0.2012,0.2018,0.2019,0.2019,0.2024,0.2024,0.2023,0.1991,0.199,0.1989,0.1989,0.204,0.2043,0.2045,0,0,0,0,0,0,0,0,0,0,0,0,0,0.2012,0.2012,0.2018,0.2006,0.2006,0.2024,0.2024,0.2023,0.1991,0.199,0.1989,0.1988,0.2039,0.2042,0.2045,0.2081,0,0,0.2054,0.2055,0,0,0,0,0,0,0,0,0.2012,0.2012,0.2008,0.2007,0.2007,0.2009,0.2041,0.2046,0.1991,0.1992,0.1989,0.1988,0.2038,0.2041,0.2038,0.2083,0.2085,0.2054,0.2056,0.2057,0.2058,0,0,0,0,0,0,0,0.2012,0.2012,0.2017,0.2008,0.2008,0.2012,0.2011,0.2041,0.2018,0.1992,0.1991,0.1998,0.2037,0.2035,0.2039,0.2086,0.2054,0.2057,0.2058,0.206,0.2252,0.2255,0,0,0,0,0,0,0.2019,0.2012,0.2017,0.2017,0.2012,0.2013,0.2011,0.2006,0.2016,0.2018,0.1999,0.1996,0.203,0.2035,0.2041,0.2144,0.2057,0.206,0.2062,0.2249,0.2253,0.2257,0,0,0,0,0,0,0.2018,0.2019,0.2017,0.2019,0.2019,0.2014,0.2009,0.2007,0.2001,0.2022,0.2023,0.1995,0.203,0.2037,0.2089,0.2143,0.2061,0.2064,0.2245,0.225,0.2255,0.2312,0,0,0,0,0,0,0.2018,0.2018,0.2014,0.2019,0.2019,0.2051,0.201,0.2008,0.2009,0.2006,0.202,0.2023,0.203,0.2085,0.2092,0.2146,0.2066,0.2241,0.2247,0.2253,0.2305,0.2318,0.2329,0,0,0,0,0,0.2017,0.2041,0.2013,0.2014,0.2014,0.2053,0.2055,0.2045,0.201,0.203,0.2037,0.2023,0.2131,0.2089,0.2097,0.2153,0.2237,0.2245,0.2253,0.23,0.2316,0.2328,0,0,0,0,0,0,0.2048,0.204,0.201,0.2029,0.2042,0.2049,0.2066,0.2047,0.2063,0.2055,0.2054,0.2061,0.2136,0.214,0.2094,0.2233,0.2187,0.2197,0.2221,0.2236,0.2247,0.2236,0.2068,0,0,0,0,0,0.2048,0.2052,0.2052,0.2067,0.2071,0.2059,0.2067,0.2062,0.2078,0.208,0.209,0.2119,0.2175,0.2197,0.2243,0.2304,0.2309,0.2353,0.2365,0.2374,0.2375,0.2444,0.2461,0.2282,0.2282,0.2281,0,0,0.207,0.206,0.2066,0.2072,0.2071,0.2105,0.2062,0.2087,0.2115,0.2089,0.2131,0.216,0.2204,0.2284,0.2318,0.2289,0.2429,0.2384,0.2391,0.2386,0.2454,0.2471,0.2486,0.2287,0.2286,0.2285,0,0,0.2132,0.2099,0.2128,0.2138,0.2144,0.2142,0.2149,0.2157,0.2157,0.2204,0.2207,0.2261,0.2322,0.2371,0.2403,0.2507,0.2493,0.2532,0.2573,0.2641,0.2655,0.2668,0.2687,0.2701,0.2532,0.2532,0.2532,0,0.2157,0.2175,0.215,0.2183,0.2193,0.2161,0.2202,0.2213,0.2239,0.2245,0.2232,0.2334,0.2369,0.247,0.2516,0.2532,0.2549,0.2508,0.2653,0.2666,0.2678,0.2694,0.2708,0.2535,0.2535,0.2535,0.2534,0,0.2243,0.2251,0.2275,0.2287,0.2304,0.2336,0.234,0.2351,0.2335,0.2339,0.2413,0.246,0.2509,0.2555,0.2568,0.2684,0.2661,0.266,0.2605,0.2698,0.271,0.2724,0.2541,0.2539,0.2538,0.2537,0,0,0.2328,0.2329,0.2339,0.2331,0.2351,0.2366,0.2413,0.2438,0.2437,0.2482,0.2504,0.2624,0.2609,0.2647,0.2677,0.2749,0.2853,0.2743,0.2745,0.274,0.2975,0.2849,0.2851,0.2877,0.288,0.2883,0.2944,0,0.2399,0.2444,0.2442,0.2487,0.25,0.2479,0.2513,0.2527,0.2525,0.254,0.259,0.263,0.2657,0.2672,0.2757,0.2822,0.2895,0.2834,0.2905,0.2906,0.2765,0.2866,0.2668,0.2697,0.2957,0.296,0.2961,0,0.2488,0.2494,0.2539,0.2523,0.2529,0.2554,0.2547,0.2574,0.2593,0.2589,0.2631,0.2643,0.2744,0.2748,0.2908,0.2866,0.2934,0.2987,0.2991,0.286,0.2807,0.2653,0.2712,0.2583,0.2982,0.2981,0.2979,0,0.2524,0.2558,0.2573,0.2578,0.2577,0.2582,0.2578,0.2586,0.2583,0.2606,0.2594,0.2696,0.2718,0.2846,0.2927,0.2933,0.3082,0.3093,0.3047,0.3037,0.2874,0.2843,0.2794,0.3231,0.323,0.323,0.323,0,0.2581,0.2595,0.2578,0.2587,0.2588,0.2585,0.2581,0.2582,0.2581,0.2565,0.2608,0.2612,0.275,0.2824,0.2934,0.3004,0.3083,0.3067,0.3059,0.2886,0.2858,0.2739,0.2683,0.3232,0.3232,0.3232,0.3231,0,0.2607,0.2605,0.2615,0.2609,0.26,0.2593,0.256,0.2543,0.2547,0.2525,0.2528,0.2567,0.264,0.2756,0.2928,0.2969,0.2958,0.309,0.2844,0.2806,0.262,0.2575,0.2456,0.2425,0.3052,0.3049,0.3047,0,0.2609,0.2621,0.2618,0.2601,0.2591,0.2569,0.254,0.2529,0.2498,0.2486,0.2467,0.2515,0.251,0.2667,0.2763,0.2889,0.2847,0.2774,0.2762,0.2585,0.2532,0.2453,0.2432,0.2573,0.2567,0.2562,0.2558,0,0.261,0.2617,0.2618,0.2589,0.2555,0.2516,0.247,0.2444,0.2413,0.2382,0.2336,0.2331,0.2407,0.2396,0.2518,0.2599,0.2554,0.2677,0.2581,0.222,0.2047,0.2018,0.2531,0.2516,0.252,0.2523,0.2525,0.2527,0.2595,0.26,0.2594,0.2557,0.2511,0.2445,0.2383,0.2329,0.2265,0.2164,0.2208,0.2122,0.2073,0.2196,0.2257,0.216,0.2284,0.2107,0.2089,0.2044,0.1933,0.232,0.224,0.2242,0.2245,0.2247,0.2248,0,0.2562,0.2567,0.2545,0.2484,0.2398,0.2396,0.2308,0.2217,0.2099,0.2023,0.1953,0.1782,0.1712,0.1712,0.1633,0.1567,0.1584,0.1528,0.1382,0.1423,0.1829,0.1725,0.1422,0.1422,0.1422,0.1422,0.1422,0.1422,0.254,0.2526,0.252,0.2377,0.2315,0.2175,0.2111,0.1992,0.1903,0.1674,0.1515,0.1444,0.1306,0.1106,0.0984,0.1011,0.098,0.0874,0.1005,0.1257,0.131,0.1361,0.1251,0.0853,0.0852,0.0526,0.0523,0.052]},{"header":{"parameterUnit":"m.s-1","parameterCategory":2,"la1":30.2991,"la2":30.254,"lo1":-89.0895,"lo2":-89.0444,"dy":0.0017,"dx":0.0017,"nx":28,"ny":28,"refTime":"2024-09-29T03:00:00:Z","depth":"0","parameterNumber":3,"parameterNumberName":"V-component_of_CURRENTS"},"data":[0,0,0,0,0,0,0,0,0,0,0,0,0,0,0,0,0,0,0,0,0,0,0,0,0,0,0,0,0,0,0,0,0,0,0,0,0,0,0,0,0,0,0,0,0,0,0,0,0,0,0,0,0,0,0,0,0,0,0.0219,0.0219,0,0.0235,0.0235,0.0236,0.0214,0.0213,0.0212,0.0211,0.023,0.0232,0.0233,0,0,0,0,0,0,0,0,0,0,0,0,0,0.0193,0.0194,0.0219,0.0219,0.0219,0.0235,0.0235,0.0236,0.0214,0.0213,0.0212,0.021,0.023,0.0232,0.0233,0,0,0,0,0,0,0,0,0,0,0,0,0,0.0208,0.0194,0.0219,0.0209,0.0208,0.0235,0.0235,0.0236,0.0214,0.0213,0.0211,0.021,0.0229,0.0231,0.0234,0.0275,0,0,0.024,0.0241,0,0,0,0,0,0,0,0,0.0207,0.0209,0.021,0.0209,0.0208,0.0219,0.0233,0.0248,0.0214,0.0213,0.0211,0.0209,0.0227,0.0229,0.0238,0.0276,0.0276,0.024,0.0241,0.0242,0.0243,0,0,0,0,0,0,0,0.0206,0.0208,0.0227,0.021,0.0209,0.0212,0.0212,0.0236,0.0229,0.0213,0.0211,0.0211,0.0227,0.0236,0.0238,0.0277,0.024,0.0242,0.0243,0.0244,0.0401,0.0403,0,0,0,0,0,0,0.0201,0.0207,0.0226,0.0227,0.0202,0.0213,0.0214,0.0219,0.0229,0.0229,0.0212,0.021,0.0233,0.0236,0.0239,0.0329,0.0242,0.0244,0.0245,0.0398,0.0401,0.0404,0,0,0,0,0,0,0.0201,0.0203,0.0226,0.0216,0.0219,0.0214,0.0221,0.022,0.0227,0.0228,0.0227,0.0219,0.0232,0.0236,0.0283,0.0328,0.0245,0.0247,0.0394,0.0399,0.0403,0.0483,0,0,0,0,0,0,0.02,0.0203,0.0208,0.0216,0.0219,0.0252,0.0222,0.0221,0.0228,0.0225,0.0234,0.0234,0.0231,0.0281,0.0286,0.0329,0.0249,0.0391,0.0396,0.0401,0.0477,0.049,0.0501,0,0,0,0,0,0.0199,0.0217,0.0208,0.021,0.0225,0.0253,0.0256,0.0249,0.023,0.0247,0.0262,0.0234,0.0318,0.0285,0.029,0.0335,0.0388,0.0395,0.0401,0.0472,0.0487,0.0501,0,0,0,0,0,0,0.0219,0.0217,0.0207,0.0226,0.024,0.0249,0.0264,0.0255,0.028,0.0277,0.0271,0.0274,0.0333,0.033,0.0293,0.0399,0.0349,0.0357,0.0402,0.0416,0.0428,0.0426,0.025,0,0,0,0,0,0.0223,0.0232,0.0236,0.0255,0.0261,0.0262,0.0271,0.0269,0.0287,0.0294,0.0303,0.0326,0.0367,0.0385,0.0413,0.0472,0.0451,0.0507,0.0519,0.0528,0.0533,0.0552,0.0565,0.0426,0.0426,0.0426,0,0,0.0239,0.0237,0.0245,0.0259,0.0267,0.0297,0.0265,0.0288,0.0322,0.0296,0.0349,0.0365,0.0392,0.046,0.0486,0.0461,0.0558,0.0537,0.0545,0.0544,0.056,0.0573,0.0585,0.043,0.0429,0.0429,0,0,0.0277,0.0273,0.0291,0.0306,0.0318,0.0327,0.0335,0.035,0.0364,0.0418,0.0416,0.0465,0.0511,0.055,0.0573,0.0672,0.0619,0.0676,0.0737,0.0756,0.0766,0.0775,0.0758,0.0765,0.0684,0.0685,0.0685,0,0.0294,0.0313,0.0306,0.0331,0.0349,0.0343,0.0378,0.0406,0.0438,0.0463,0.0445,0.0543,0.0561,0.0656,0.0693,0.0699,0.0679,0.0675,0.0768,0.0777,0.0785,0.0765,0.0772,0.0689,0.0689,0.0688,0.0688,0,0.0341,0.0361,0.038,0.0406,0.0431,0.0462,0.049,0.0522,0.0533,0.0556,0.0637,0.0673,0.0723,0.0751,0.0753,0.0835,0.0791,0.0775,0.0723,0.0803,0.0778,0.0783,0.0696,0.0694,0.0693,0.0692,0,0,0.0363,0.0403,0.0408,0.0426,0.0468,0.0491,0.0561,0.0617,0.0653,0.0702,0.076,0.0852,0.0849,0.0877,0.089,0.0919,0.0962,0.0873,0.0871,0.084,0.097,0.0936,0.0938,0.095,0.0952,0.0953,0.0925,0,0.0399,0.0449,0.0467,0.053,0.0557,0.0584,0.0645,0.0697,0.0736,0.0793,0.0849,0.0905,0.0904,0.0924,0.0963,0.0966,0.0981,0.0969,0.0911,0.0909,0.0856,0.0946,0.0969,0.0946,0.093,0.0931,0.0931,0,0.043,0.0457,0.0514,0.0573,0.0588,0.0628,0.0702,0.0757,0.0842,0.0872,0.094,0.0962,0.1044,0.1009,0.1061,0.1046,0.1014,0.1005,0.1003,0.0947,0.0887,0.0868,0.0956,0.0917,0.0939,0.0938,0.0938,0,0.0423,0.0489,0.053,0.0551,0.0621,0.0654,0.0696,0.0775,0.0824,0.0911,0.0942,0.1031,0.1066,0.1074,0.1073,0.1057,0.1094,0.1065,0.1002,0.0997,0.0995,0.0988,0.1028,0.1077,0.1077,0.1078,0.1078,0,0.0442,0.0474,0.0523,0.0543,0.0594,0.0645,0.0708,0.0762,0.0844,0.0908,0.0968,0.1031,0.1081,0.111,0.109,0.1076,0.1107,0.1029,0.1005,0.1024,0.102,0.0965,0.0948,0.1076,0.1077,0.1077,0.1077,0,0.0426,0.0461,0.0503,0.0567,0.0587,0.0618,0.0697,0.0745,0.0818,0.0899,0.0925,0.1035,0.1085,0.1107,0.1124,0.1092,0.1076,0.1047,0.1053,0.1031,0.0931,0.0917,0.0964,0.0989,0.0981,0.098,0.0979,0,0.0425,0.0443,0.0499,0.0517,0.0541,0.0593,0.0632,0.0719,0.0772,0.0904,0.0943,0.1024,0.1103,0.1125,0.1104,0.107,0.1055,0.102,0.1009,0.0949,0.0916,0.0938,0.096,0.103,0.103,0.103,0.103,0,0.0415,0.0428,0.0457,0.0493,0.0525,0.0577,0.0638,0.0681,0.0791,0.0867,0.0987,0.1063,0.1112,0.1142,0.1092,0.1061,0.1037,0.1012,0.0973,0.0988,0.0997,0.1,0.0992,0.1029,0.1029,0.1029,0.1029,0.1029,0.0395,0.0411,0.0442,0.0474,0.0512,0.0571,0.0622,0.07,0.0797,0.0939,0.1005,0.1125,0.114,0.1113,0.1072,0.0981,0.1012,0.094,0.0933,0.0964,0.0994,0.0964,0.0958,0.0958,0.0957,0.0957,0.0957,0,0.038,0.0403,0.0428,0.0477,0.0514,0.0544,0.0637,0.0705,0.0823,0.0948,0.1066,0.1125,0.1129,0.109,0.0987,0.0919,0.0948,0.0881,0.0932,0.0961,0.0949,0.0954,0.0921,0.0921,0.0921,0.0921,0.0921,0.0921,0.0372,0.0394,0.0415,0.0468,0.0505,0.0581,0.064,0.0744,0.0851,0.099,0.1065,0.1127,0.1085,0.0975,0.0885,0.0866,0.0874,0.0866,0.0865,0.0839,0.0844,0.0849,0.0851,0.0797,0.0797,0.0924,0.0925,0.0925]}],[{"header":{"parameterUnit":"m.s-1","parameterCategory":2,"la1":30.2991,"la2":30.254,"lo1":-89.0895,"lo2":-89.0444,"dy":0.0017,"dx":0.0017,"nx":28,"ny":28,"refTime":"2024-09-29T03:00:00:Z","depth":"2","parameterNumber":2,"parameterNumberName":"U-component_of_CURRENTS"},"data":[0,0,0,0,0,0,0,0,0,0,0,0,0,0,0,0,0,0,0,0,0,0,0,0,0,0,0,0,0,0,0,0,0,0,0,0,0,0,0,0,0,0,0,0,0,0,0,0,0,0,0,0,0,0,0,0,0,0,0.1284,0.1284,0,0.1285,0.1285,0.1284,0.1269,0.1269,0.1269,0.1269,0.1375,0.1377,0.138,0,0,0,0,0,0,0,0,0,0,0,0,0,0.1303,0.1302,0.1284,0.1284,0.1285,0.1286,0.1285,0.1284,0.1269,0.1269,0.1269,0.1269,0.1374,0.1377,0.138,0,0,0,0,0,0,0,0,0,0,0,0,0,0.1292,0.1301,0.1284,0.1282,0.1282,0.1286,0.1285,0.1284,0.1269,0.1269,0.1269,0.1269,0.1373,0.1377,0.1381,0.1401,0,0,0.1393,0.1395,0,0,0,0,0,0,0,0,0.1293,0.1291,0.1281,0.1282,0.1282,0.1283,0.1331,0.1331,0.1269,0.1267,0.1269,0.1269,0.1358,0.1363,0.1352,0.1406,0.1411,0.1393,0.1396,0.1397,0.1399,0,0,0,0,0,0,0,0.1294,0.1291,0.1278,0.1282,0.1283,0.1294,0.1291,0.133,0.1308,0.1267,0.1268,0.1278,0.1358,0.1348,0.1355,0.1412,0.1393,0.1397,0.1399,0.1401,0.155,0.1551,0,0,0,0,0,0,0.1304,0.1291,0.1278,0.1279,0.1295,0.1293,0.1291,0.1277,0.1306,0.1311,0.1278,0.1277,0.1341,0.135,0.1359,0.1404,0.1397,0.1401,0.1403,0.1548,0.155,0.1552,0,0,0,0,0,0,0.1303,0.1301,0.1278,0.1292,0.129,0.1293,0.1278,0.1277,0.1296,0.1313,0.132,0.1301,0.1342,0.1353,0.1382,0.1408,0.1403,0.1407,0.1547,0.1549,0.1551,0.1484,0,0,0,0,0,0,0.1303,0.1301,0.1302,0.1291,0.129,0.1292,0.1279,0.1277,0.1303,0.1303,0.1336,0.1343,0.1343,0.1375,0.1386,0.1414,0.141,0.1545,0.1548,0.155,0.1485,0.1484,0.1484,0,0,0,0,0,0.1304,0.1297,0.1301,0.1301,0.1288,0.1293,0.1293,0.1292,0.1304,0.131,0.1314,0.1344,0.1403,0.1378,0.1391,0.142,0.1543,0.1547,0.155,0.1485,0.1484,0.1484,0,0,0,0,0,0,0.1309,0.1295,0.13,0.129,0.1302,0.1293,0.1306,0.1314,0.1321,0.1324,0.1342,0.1349,0.1395,0.1423,0.1396,0.1478,0.1489,0.1495,0.1435,0.1435,0.1435,0.1411,0.1413,0,0,0,0,0,0.1313,0.1303,0.1303,0.1304,0.1312,0.1319,0.1328,0.1325,0.133,0.1334,0.1362,0.1394,0.1417,0.1434,0.1468,0.1501,0.1517,0.154,0.1539,0.1538,0.1531,0.1556,0.1555,0.1563,0.1563,0.1563,0,0,0.1311,0.1313,0.1304,0.1306,0.1316,0.1294,0.1323,0.1337,0.1313,0.1348,0.1352,0.1401,0.1429,0.1453,0.148,0.1477,0.1547,0.1542,0.154,0.1534,0.1559,0.1558,0.1557,0.1566,0.1565,0.1565,0,0,0.1303,0.1314,0.1299,0.1308,0.1327,0.1308,0.1322,0.1334,0.1339,0.1347,0.1368,0.1414,0.1467,0.1469,0.1479,0.1506,0.155,0.1559,0.1524,0.1548,0.1546,0.1545,0.1559,0.156,0.1549,0.1549,0.1549,0,0.1309,0.1275,0.1302,0.1298,0.1286,0.1314,0.1281,0.1285,0.1304,0.132,0.1347,0.1428,0.1458,0.1465,0.147,0.15,0.1528,0.151,0.1541,0.1541,0.154,0.1556,0.1557,0.1546,0.1546,0.1547,0.1547,0,0.1263,0.1258,0.1261,0.1234,0.1232,0.1217,0.1216,0.1236,0.1259,0.1272,0.1331,0.137,0.1425,0.1453,0.146,0.1493,0.1518,0.1538,0.1527,0.1534,0.1552,0.1554,0.1542,0.1543,0.1544,0.1545,0,0,0.1234,0.1216,0.1225,0.1204,0.1189,0.1178,0.1158,0.1144,0.1157,0.121,0.1235,0.1282,0.1364,0.1382,0.1432,0.1445,0.1462,0.1494,0.1496,0.148,0.1521,0.1384,0.1374,0.1496,0.1496,0.1496,0.1531,0,0.119,0.1142,0.1137,0.1086,0.106,0.1074,0.1055,0.1066,0.1101,0.1148,0.1213,0.1271,0.1317,0.1374,0.1392,0.1469,0.1469,0.1451,0.1542,0.1544,0.1397,0.1371,0.1252,0.126,0.1533,0.1533,0.1534,0,0.1161,0.112,0.1055,0.1019,0.101,0.0983,0.0974,0.0964,0.1033,0.1083,0.116,0.124,0.1301,0.1339,0.1426,0.1425,0.1465,0.1499,0.1501,0.1394,0.1409,0.1303,0.1254,0.1538,0.1538,0.1537,0.1537,0,0.1143,0.1082,0.1015,0.1,0.0953,0.0947,0.0925,0.097,0.0984,0.1073,0.1124,0.1211,0.1291,0.1346,0.1446,0.1451,0.1529,0.154,0.1436,0.1429,0.1352,0.1334,0.1562,0.1562,0.1562,0.1562,0.1562,0,0.1108,0.1066,0.1011,0.0987,0.0922,0.0926,0.0913,0.093,0.0988,0.1022,0.1115,0.1176,0.1304,0.1379,0.1437,0.1445,0.1526,0.1411,0.1417,0.1325,0.1305,0.1574,0.1575,0.1563,0.1563,0.1562,0.1562,0,0.1098,0.1074,0.1001,0.0938,0.093,0.0894,0.0889,0.0895,0.0962,0.1016,0.1053,0.1175,0.1272,0.1359,0.1463,0.1424,0.1448,0.1426,0.1299,0.1284,0.1332,0.133,0.1289,0.1284,0.128,0.1277,0.1274,0,0.1069,0.1037,0.0966,0.0942,0.0912,0.0877,0.0872,0.0895,0.0909,0.1015,0.1038,0.1156,0.1218,0.1286,0.1254,0.1262,0.1387,0.1133,0.1076,0.1288,0.1299,0.1304,0.1307,0.0973,0.0968,0.0964,0.0961,0,0.0973,0.0973,0.0899,0.0883,0.0864,0.0826,0.0823,0.0831,0.0884,0.0941,0.1034,0.1092,0.1113,0.1065,0.1029,0.102,0.1112,0.1038,0.1324,0.103,0.0984,0.0997,0.1012,0.0924,0.0927,0.093,0.0932,0.0933,0.0897,0.084,0.0808,0.0782,0.0793,0.0808,0.0804,0.0824,0.0863,0.0961,0.0981,0.1005,0.091,0.0782,0.0776,0.0768,0.0813,0.0787,0.0804,0.0824,0.075,0.0696,0.0569,0.057,0.0572,0.0573,0.0574,0,0.0804,0.0772,0.0719,0.0714,0.077,0.081,0.0799,0.0801,0.0879,0.0894,0.0961,0.0727,0.0634,0.0629,0.0516,0.0438,0.0484,0.0468,0.0549,0.058,0.061,0.0532,0.029,0.029,0.029,0.029,0,0,0.0754,0.0672,0.0649,0.0707,0.0789,0.085,0.0891,0.0873,0.0835,0.0819,0.078,0.0689,0.0559,0.0408,0.035,0.0351,0.0494,0.0336,0.0548,0.0675,0.0707,0.0749,0.0655,0,0,0,0,0]},{"header":{"parameterUnit":"m.s-1","parameterCategory":2,"la1":30.2991,"la2":30.254,"lo1":-89.0895,"lo2":-89.0444,"dy":0.0017,"dx":0.0017,"nx":28,"ny":28,"refTime":"2024-09-29T03:00:00:Z","depth":"2","parameterNumber":3,"parameterNumberName":"V-component_of_CURRENTS"},"data":[0,0,0,0,0,0,0,0,0,0,0,0,0,0,0,0,0,0,0,0,0,0,0,0,0,0,0,0,0,0,0,0,0,0,0,0,0,0,0,0,0,0,0,0,0,0,0,0,0,0,0,0,0,0,0,0,0,0,-0.0125,-0.0125,0,-0.0123,-0.0123,-0.0123,-0.0123,-0.0123,-0.0123,-0.0123,-0.0106,-0.0106,-0.0105,0,0,0,0,0,0,0,0,0,0,0,0,0,-0.0111,-0.0111,-0.0125,-0.0125,-0.0125,-0.0123,-0.0123,-0.0123,-0.0123,-0.0123,-0.0123,-0.0123,-0.0106,-0.0106,-0.0105,0,0,0,0,0,0,0,0,0,0,0,0,0,-0.0115,-0.0112,-0.0125,-0.0124,-0.0124,-0.0123,-0.0123,-0.0123,-0.0123,-0.0123,-0.0123,-0.0123,-0.0107,-0.0106,-0.0105,-0.0103,0,0,-0.0103,-0.0103,0,0,0,0,0,0,0,0,-0.0115,-0.0115,-0.0124,-0.0124,-0.0124,-0.0123,-0.0112,-0.0115,-0.0123,-0.0125,-0.0123,-0.0123,-0.011,-0.0109,-0.011,-0.0102,-0.0101,-0.0103,-0.0103,-0.0103,-0.0103,0,0,0,0,0,0,0,-0.0114,-0.0115,-0.0125,-0.0124,-0.0124,-0.0118,-0.0118,-0.0113,-0.0118,-0.0124,-0.0124,-0.0123,-0.011,-0.0111,-0.011,-0.0101,-0.0103,-0.0103,-0.0102,-0.0102,-0.0082,-0.0082,0,0,0,0,0,0,-0.0114,-0.0115,-0.0125,-0.0125,-0.0118,-0.0118,-0.0119,-0.0124,-0.0118,-0.0117,-0.0123,-0.0123,-0.0112,-0.011,-0.0109,-0.0095,-0.0103,-0.0102,-0.0102,-0.0082,-0.0082,-0.0082,0,0,0,0,0,0,-0.0114,-0.0115,-0.0125,-0.0119,-0.012,-0.0118,-0.0124,-0.0124,-0.012,-0.0117,-0.0116,-0.0118,-0.0112,-0.011,-0.0113,-0.0095,-0.0102,-0.0101,-0.0082,-0.0082,-0.0082,-0.0073,0,0,0,0,0,0,-0.0114,-0.0115,-0.012,-0.0119,-0.012,-0.0119,-0.0124,-0.0124,-0.0119,-0.0119,-0.0113,-0.0111,-0.0112,-0.0114,-0.0113,-0.0094,-0.0101,-0.0083,-0.0082,-0.0082,-0.0074,-0.0073,-0.0072,0,0,0,0,0,-0.0113,-0.0121,-0.012,-0.0121,-0.0126,-0.0118,-0.0118,-0.0117,-0.0119,-0.0114,-0.0122,-0.0111,-0.011,-0.0114,-0.0112,-0.0093,-0.0083,-0.0082,-0.0082,-0.0074,-0.0073,-0.0072,0,0,0,0,0,0,-0.0122,-0.0122,-0.0121,-0.013,-0.012,-0.0118,-0.0118,-0.0114,-0.0116,-0.0119,-0.0118,-0.0117,-0.0113,-0.0107,-0.0111,-0.0086,-0.0091,-0.009,-0.0086,-0.0084,-0.0083,-0.0067,-0.01,0,0,0,0,0,-0.0124,-0.0129,-0.0123,-0.0128,-0.0125,-0.0119,-0.0117,-0.0113,-0.0114,-0.0115,-0.0109,-0.0108,-0.011,-0.0102,-0.0104,-0.009,-0.0089,-0.0074,-0.0073,-0.0072,-0.0057,-0.0063,-0.0061,-0.0081,-0.0081,-0.0081,0,0,-0.0133,-0.013,-0.0136,-0.013,-0.0126,-0.0114,-0.0118,-0.0112,-0.01,-0.0112,-0.01,-0.0109,-0.011,-0.0102,-0.0097,-0.0092,-0.0067,-0.0071,-0.0071,-0.0056,-0.0062,-0.0061,-0.0059,-0.008,-0.008,-0.008,0,0,-0.0139,-0.0145,-0.0144,-0.0132,-0.0119,-0.0114,-0.0109,-0.0099,-0.0093,-0.009,-0.0096,-0.0096,-0.0092,-0.0085,-0.0084,-0.0076,-0.007,-0.0071,-0.0041,-0.0047,-0.0046,-0.0044,-0.0045,-0.0043,-0.006,-0.006,-0.006,0,-0.0148,-0.0139,-0.0141,-0.0126,-0.0111,-0.011,-0.0092,-0.0089,-0.008,-0.0061,-0.0084,-0.0071,-0.0082,-0.0057,-0.0064,-0.0071,-0.0075,-0.0047,-0.0046,-0.0045,-0.0043,-0.0044,-0.0042,-0.006,-0.006,-0.006,-0.006,0,-0.0144,-0.013,-0.0127,-0.0107,-0.0094,-0.0079,-0.0067,-0.0053,-0.0051,-0.0036,-0.0017,-0.0042,-0.0023,-0.0032,-0.0053,-0.0033,-0.004,-0.0054,-0.0049,-0.0041,-0.0042,-0.0041,-0.0059,-0.0059,-0.006,-0.006,0,0,-0.0175,-0.0133,-0.0128,-0.0097,-0.0077,-0.0058,-0.0041,-0.0005,0.0036,0.0021,0.0068,0.0037,0.0039,0.0039,0.0023,0.0012,-0.0,-0.0017,-0.0017,-0.0015,-0.0011,0.0025,0.003,-0.0019,-0.0019,-0.0019,-0.0017,0,-0.0165,-0.012,-0.0106,-0.0059,-0.0031,-0.0013,0.0016,0.0049,0.0071,0.0114,0.0095,0.012,0.0063,0.0073,0.005,0.0023,0.0004,0.0001,-0.0019,-0.0019,0.0013,0.0034,-0.0001,0.0001,-0.0016,-0.0016,-0.0015,0,-0.0154,-0.0121,-0.0075,-0.0001,0.0013,0.0034,0.0106,0.0134,0.0186,0.0206,0.0223,0.022,0.0215,0.015,0.0107,0.0107,0.0047,0.0009,0.0008,0.0045,0.0021,-0.0009,0.0004,-0.0013,-0.0013,-0.0014,-0.0014,0,-0.0146,-0.0088,-0.0044,-0.0024,0.0041,0.0068,0.01,0.0163,0.0213,0.0267,0.0312,0.0307,0.0312,0.0239,0.0163,0.0133,0.011,0.0064,0.0039,0.004,0.0012,0.0011,0.0016,0.0016,0.0016,0.0016,0.0016,0,-0.0125,-0.0085,-0.0036,-0.0011,0.0053,0.0089,0.0167,0.0206,0.0279,0.0356,0.0356,0.0412,0.0329,0.0312,0.021,0.0152,0.0148,0.0059,0.005,0.0014,0.0014,0.0002,0.0,0.0016,0.0016,0.0016,0.0016,0,-0.0114,-0.0085,-0.0029,0.0035,0.0058,0.01,0.0193,0.0266,0.0322,0.0418,0.0436,0.0495,0.0486,0.0406,0.0317,0.0236,0.016,0.0127,0.0102,0.009,0.0077,0.0076,0.0108,0.011,0.0111,0.0112,0.0113,0,-0.0096,-0.0068,-0.0005,0.003,0.0055,0.0124,0.0189,0.0268,0.0347,0.0474,0.0526,0.0567,0.0608,0.0526,0.0389,0.026,0.0212,0.0149,0.0085,0.0103,0.009,0.0086,0.0084,0.0038,0.0038,0.0038,0.0039,0,-0.0062,-0.0051,-0.0008,0.0054,0.0113,0.0197,0.0285,0.0349,0.0456,0.055,0.0676,0.0722,0.0668,0.0555,0.0402,0.0305,0.0173,0.0151,0.0178,0.0035,0.0041,0.0027,0.0025,0.004,0.004,0.004,0.004,0.0039,-0.0044,-0.0008,0.004,0.0098,0.0165,0.0259,0.033,0.044,0.0567,0.0704,0.0751,0.0783,0.0621,0.0419,0.0329,0.0232,0.0209,0.0113,0.011,0.0107,0.0114,0.0123,0.0139,0.0139,0.014,0.014,0.014,0,-0.0007,0.003,0.0092,0.0168,0.0236,0.0263,0.0399,0.0485,0.0627,0.0715,0.0816,0.0639,0.0528,0.0387,0.0233,0.015,0.0125,0.0131,0.0076,0.0074,0.0072,0.0076,0.0091,0.0091,0.0092,0.0092,0,0,0.0015,0.0078,0.0116,0.0218,0.0261,0.0368,0.0435,0.0566,0.064,0.0732,0.0715,0.0673,0.047,0.032,0.0211,0.0165,0.0154,0.0166,0.0202,0.0147,0.0148,0.0046,0.0048,0,0,0,0,0]}],[{"header":{"parameterUnit":"m.s-1","parameterCategory":2,"la1":30.2991,"la2":30.254,"lo1":-89.0895,"lo2":-89.0444,"dy":0.0017,"dx":0.0017,"nx":28,"ny":28,"refTime":"2024-09-29T03:00:00:Z","depth":"4","parameterNumber":2,"parameterNumberName":"U-component_of_CURRENTS"},"data":[0,0,0,0,0,0,0,0,0,0,0,0,0,0,0,0,0,0,0,0,0,0,0,0,0,0,0,0,0,0,0,0,0,0,0,0,0,0,0,0,0,0,0,0,0,0,0,0,0,0,0,0,0,0,0,0,0,0,-0.042,-0.0419,0,-0.039,-0.039,-0.039,-0.0338,-0.0337,-0.0336,-0.0335,-0.0244,-0.0242,-0.0241,0,0,0,0,0,0,0,0,0,0,0,0,0,-0.0411,-0.0411,-0.042,-0.0419,-0.0419,-0.039,-0.039,-0.039,-0.0338,-0.0337,-0.0335,-0.0334,-0.0244,-0.0242,-0.0241,0,0,0,0,0,0,0,0,0,0,0,0,0,-0.0402,-0.0412,-0.042,-0.0389,-0.0386,-0.039,-0.039,-0.039,-0.0338,-0.0337,-0.0335,-0.0334,-0.0245,-0.0243,-0.024,-0.0258,0,0,-0.0234,-0.0233,0,0,0,0,0,0,0,0,-0.0403,-0.0403,-0.0394,-0.0391,-0.0388,-0.0366,-0.0353,-0.0342,-0.0339,-0.0357,-0.0335,-0.0333,-0.0279,-0.0274,-0.0274,-0.0254,-0.025,-0.0234,-0.0232,-0.0231,-0.0231,0,0,0,0,0,0,0,-0.0403,-0.0403,-0.0409,-0.0394,-0.039,-0.037,-0.0367,-0.0351,-0.0327,-0.0355,-0.0351,-0.0348,-0.0277,-0.0276,-0.0271,-0.0249,-0.0234,-0.0232,-0.023,-0.023,-0.0166,-0.0166,0,0,0,0,0,0,-0.0409,-0.0404,-0.041,-0.0408,-0.0391,-0.0371,-0.0368,-0.0375,-0.0328,-0.032,-0.0349,-0.0345,-0.0281,-0.0274,-0.0268,-0.02,-0.0231,-0.0229,-0.0228,-0.0166,-0.0166,-0.0166,0,0,0,0,0,0,-0.0409,-0.041,-0.0411,-0.0404,-0.0402,-0.0373,-0.0381,-0.0375,-0.0347,-0.0324,-0.0314,-0.0323,-0.0279,-0.0271,-0.0221,-0.0199,-0.0228,-0.0226,-0.0167,-0.0166,-0.0166,-0.0119,0,0,0,0,0,0,-0.0409,-0.0411,-0.0416,-0.0405,-0.0403,-0.0403,-0.0382,-0.0376,-0.0348,-0.0342,-0.0299,-0.0291,-0.0277,-0.0224,-0.0219,-0.0196,-0.0225,-0.0167,-0.0167,-0.0166,-0.0121,-0.0116,-0.0113,0,0,0,0,0,-0.0409,-0.0417,-0.0417,-0.0417,-0.0413,-0.0403,-0.04,-0.0374,-0.0348,-0.0341,-0.0297,-0.0291,-0.0217,-0.0222,-0.0216,-0.0192,-0.0168,-0.0167,-0.0166,-0.0122,-0.0117,-0.0113,0,0,0,0,0,0,-0.0413,-0.0412,-0.0412,-0.0419,-0.0409,-0.0393,-0.0387,-0.0363,-0.0326,-0.0305,-0.0278,-0.0267,-0.0218,-0.0217,-0.0224,-0.0175,-0.0195,-0.0193,-0.0164,-0.0159,-0.0155,-0.0151,-0.0223,0,0,0,0,0,-0.0421,-0.043,-0.0421,-0.0429,-0.0423,-0.0402,-0.0393,-0.0367,-0.0335,-0.0316,-0.0272,-0.0238,-0.0219,-0.0195,-0.0175,-0.0144,-0.0171,-0.013,-0.0126,-0.0122,-0.0117,-0.0153,-0.0152,-0.0163,-0.0163,-0.0163,0,0,-0.0429,-0.0428,-0.0435,-0.0431,-0.0423,-0.0404,-0.0392,-0.0367,-0.033,-0.0313,-0.0237,-0.0218,-0.0208,-0.0169,-0.0148,-0.0157,-0.0133,-0.0121,-0.0118,-0.0114,-0.0152,-0.0151,-0.015,-0.0162,-0.0162,-0.0162,0,0,-0.0442,-0.0445,-0.0453,-0.044,-0.0418,-0.0398,-0.0384,-0.0341,-0.0303,-0.0241,-0.0222,-0.0188,-0.0135,-0.0128,-0.0122,-0.0091,-0.0113,-0.0082,-0.0051,-0.0086,-0.0086,-0.0086,-0.0118,-0.0121,-0.0078,-0.0078,-0.0078,0,-0.0447,-0.0454,-0.0452,-0.0443,-0.0422,-0.0389,-0.0367,-0.0333,-0.0266,-0.0231,-0.0205,-0.0137,-0.0121,-0.0101,-0.008,-0.008,-0.0102,-0.0066,-0.0081,-0.0082,-0.0083,-0.0115,-0.0119,-0.0075,-0.0076,-0.0076,-0.0076,0,-0.0452,-0.0455,-0.0453,-0.0432,-0.0408,-0.0384,-0.0334,-0.0283,-0.0221,-0.0182,-0.0119,-0.0096,-0.0058,-0.0053,-0.0046,-0.0041,-0.0056,-0.0074,-0.0092,-0.0079,-0.0114,-0.0119,-0.0072,-0.0073,-0.0074,-0.0074,0,0,-0.047,-0.0459,-0.046,-0.0442,-0.0391,-0.0368,-0.0305,-0.0246,-0.0197,-0.0127,-0.0074,-0.0033,-0.0011,-0.0004,-0.0001,-0.0022,-0.0038,-0.0036,-0.0039,-0.0065,-0.0111,-0.0121,-0.0128,-0.0057,-0.0058,-0.0058,-0.0134,0,-0.0471,-0.0464,-0.0443,-0.0406,-0.039,-0.0332,-0.0276,-0.0211,-0.0148,-0.0084,-0.0059,-0.0006,0.0002,0.003,0.0012,-0.0023,-0.0049,-0.0016,-0.0122,-0.0125,-0.0134,-0.0133,-0.006,-0.0138,-0.0139,-0.014,-0.014,0,-0.047,-0.0467,-0.0445,-0.0387,-0.037,-0.0318,-0.022,-0.0165,-0.0088,-0.0039,0.0007,0.0031,0.0043,0.0038,-0.0018,0.0006,-0.0041,-0.0081,-0.0086,-0.0114,-0.0144,-0.0156,-0.015,-0.0149,-0.0149,-0.0148,-0.0147,0,-0.0485,-0.0454,-0.0435,-0.0417,-0.0351,-0.0292,-0.0224,-0.0138,-0.0083,-0.0003,0.0028,0.0049,0.0064,0.0013,-0.0053,-0.0025,-0.0151,-0.0132,-0.0195,-0.0196,-0.0186,-0.0185,-0.0194,-0.0194,-0.0194,-0.0194,-0.0193,0,-0.0475,-0.0464,-0.0428,-0.0419,-0.0343,-0.0281,-0.0185,-0.0119,-0.0037,-0.001,0.0058,0.0033,0.0058,-0.0007,-0.0064,-0.0154,-0.0166,-0.0189,-0.0216,-0.0164,-0.016,-0.019,-0.0188,-0.0196,-0.0196,-0.0195,-0.0195,0,-0.048,-0.0476,-0.0463,-0.04,-0.0354,-0.029,-0.0149,-0.0094,-0.0017,0.0012,0.0038,0.004,-0.0037,-0.006,-0.0161,-0.017,-0.0263,-0.0308,-0.0262,-0.0286,-0.0271,-0.0266,-0.033,-0.0331,-0.0332,-0.0332,-0.0333,0,-0.0474,-0.0475,-0.0454,-0.0421,-0.0372,-0.0264,-0.0188,-0.0081,-0.0049,-0.0043,-0.0062,-0.0088,-0.0107,-0.0232,-0.028,-0.0349,-0.0364,-0.037,-0.0282,-0.0264,-0.0285,-0.0278,-0.0273,-0.0334,-0.0335,-0.0335,-0.0335,0,-0.0463,-0.0481,-0.0483,-0.043,-0.0354,-0.0274,-0.0173,-0.0152,-0.0087,-0.0045,-0.0112,-0.0133,-0.0224,-0.0273,-0.0311,-0.0391,-0.0325,-0.0378,-0.0374,-0.0291,-0.027,-0.0288,-0.0282,-0.0338,-0.0337,-0.0337,-0.0337,0,-0.0466,-0.0469,-0.0484,-0.0418,-0.0355,-0.029,-0.0233,-0.0188,-0.014,-0.012,-0.02,-0.0251,-0.0269,-0.0311,-0.0412,-0.0408,-0.0377,-0.0325,-0.0324,-0.0321,-0.0283,-0.0253,-0.0341,0,0,0,0,0,-0.0444,-0.0447,-0.0433,-0.0393,-0.0347,-0.0293,-0.0231,-0.0195,-0.0173,-0.0197,-0.0161,-0.0254,-0.0304,-0.0375,-0.0367,-0.044,-0.0401,-0.0432,-0.0346,-0.0354,-0.035,-0.0307,0,0,0,0,0,0,-0.0431,-0.0441,-0.045,-0.0387,-0.0343,-0.0277,-0.0244,-0.0233,-0.0236,-0.0224,-0.0262,-0.0233,-0.0307,-0.03,-0.0364,-0.0375,-0.0311,-0.0454,-0.0453,-0.0356,-0.0353,-0.035,-0.0304,0,0,0,0,0]},{"header":{"parameterUnit":"m.s-1","parameterCategory":2,"la1":30.2991,"la2":30.254,"lo1":-89.0895,"lo2":-89.0444,"dy":0.0017,"dx":0.0017,"nx":28,"ny":28,"refTime":"2024-09-29T03:00:00:Z","depth":"4","parameterNumber":3,"parameterNumberName":"V-component_of_CURRENTS"},"data":[0,0,0,0,0,0,0,0,0,0,0,0,0,0,0,0,0,0,0,0,0,0,0,0,0,0,0,0,0,0,0,0,0,0,0,0,0,0,0,0,0,0,0,0,0,0,0,0,0,0,0,0,0,0,0,0,0,0,0.0436,0.0435,0,0.0453,0.0454,0.0455,0.0533,0.0533,0.0534,0.0535,0.0487,0.0485,0.0483,0,0,0,0,0,0,0,0,0,0,0,0,0,0.0394,0.0396,0.0436,0.0435,0.0434,0.0453,0.0454,0.0455,0.0532,0.0534,0.0535,0.0536,0.0487,0.0485,0.0482,0,0,0,0,0,0,0,0,0,0,0,0,0,0.0421,0.0396,0.0436,0.0468,0.047,0.0453,0.0454,0.0456,0.0532,0.0534,0.0535,0.0536,0.0488,0.0485,0.0482,0.0436,0,0,0.0472,0.0471,0,0,0,0,0,0,0,0,0.042,0.0424,0.0464,0.0465,0.0468,0.0483,0.0421,0.0442,0.0532,0.0519,0.0535,0.0537,0.0472,0.047,0.0486,0.0433,0.0431,0.0472,0.047,0.0469,0.0468,0,0,0,0,0,0,0,0.0418,0.0423,0.0453,0.0463,0.0465,0.0454,0.0462,0.0426,0.0494,0.052,0.0524,0.0509,0.0474,0.0489,0.0485,0.0431,0.0472,0.0469,0.0467,0.0466,0.0325,0.0324,0,0,0,0,0,0,0.0398,0.0422,0.0452,0.0452,0.0435,0.0453,0.0462,0.0485,0.0496,0.0497,0.0508,0.0512,0.0494,0.0488,0.0483,0.0421,0.0469,0.0466,0.0464,0.0327,0.0325,0.0323,0,0,0,0,0,0,0.0398,0.0403,0.0451,0.0427,0.0431,0.0452,0.0478,0.0485,0.0527,0.0486,0.0488,0.0545,0.0494,0.0487,0.0458,0.042,0.0464,0.0461,0.0329,0.0327,0.0324,0.03,0,0,0,0,0,0,0.0398,0.0403,0.0429,0.0427,0.0432,0.0462,0.0476,0.0484,0.0509,0.0517,0.0517,0.0513,0.0495,0.0463,0.0455,0.0416,0.0459,0.0332,0.0328,0.0325,0.0304,0.0297,0.0292,0,0,0,0,0,0.0397,0.0404,0.0432,0.0435,0.0463,0.0462,0.0466,0.0489,0.051,0.0534,0.0518,0.0515,0.0435,0.046,0.0451,0.041,0.0333,0.0329,0.0325,0.0306,0.0298,0.0292,0,0,0,0,0,0,0.039,0.0412,0.0442,0.0458,0.0473,0.0472,0.049,0.0502,0.0514,0.0521,0.05,0.0493,0.0448,0.0433,0.046,0.0357,0.0379,0.0373,0.0368,0.036,0.0355,0.0362,0.0456,0,0,0,0,0,0.0401,0.0434,0.044,0.0463,0.0474,0.0493,0.0501,0.0511,0.0506,0.0518,0.0491,0.0459,0.0418,0.0399,0.0362,0.0312,0.0319,0.0275,0.0269,0.0265,0.0263,0.0242,0.0235,0.0309,0.031,0.031,0,0,0.0402,0.042,0.0438,0.0466,0.0491,0.049,0.0507,0.052,0.0503,0.0501,0.0471,0.0442,0.0402,0.0343,0.032,0.0329,0.0249,0.0259,0.0256,0.0256,0.0237,0.023,0.0224,0.0307,0.0307,0.0308,0,0,0.0404,0.0448,0.0474,0.0486,0.0506,0.0504,0.0512,0.0507,0.0505,0.0461,0.0447,0.0405,0.0337,0.03,0.0274,0.0214,0.0222,0.0191,0.0163,0.0143,0.0137,0.0132,0.0148,0.0145,0.0184,0.0184,0.0184,0,0.0406,0.0442,0.0477,0.0493,0.0487,0.0511,0.0508,0.0501,0.0473,0.0442,0.0445,0.0337,0.0313,0.024,0.0214,0.0201,0.0204,0.0197,0.0138,0.0133,0.0128,0.0146,0.0142,0.0182,0.0183,0.0183,0.0183,0,0.041,0.0448,0.046,0.0496,0.0493,0.0496,0.0475,0.0456,0.0434,0.0402,0.0326,0.0286,0.0222,0.0196,0.0185,0.0123,0.0143,0.014,0.0164,0.012,0.014,0.0138,0.018,0.0181,0.0181,0.0182,0,0,0.0392,0.0454,0.0463,0.0481,0.049,0.0481,0.0445,0.0404,0.037,0.0319,0.0257,0.0181,0.0163,0.0133,0.0109,0.0086,0.0063,0.0095,0.0095,0.0126,0.0042,0.0054,0.0053,0.0049,0.0048,0.0047,0.0077,0,0.0393,0.0426,0.0438,0.0446,0.0459,0.0445,0.0402,0.036,0.0317,0.0256,0.0204,0.0147,0.0138,0.0109,0.0078,0.0058,0.005,0.0057,0.0067,0.0068,0.0095,0.0047,0.0043,0.0075,0.0074,0.0074,0.0073,0,0.0383,0.0413,0.043,0.0427,0.0427,0.0409,0.0346,0.0309,0.0235,0.0199,0.0138,0.0107,0.0049,0.0061,0.0015,0.0018,0.003,0.0028,0.0029,0.0046,0.0072,0.012,0.0068,0.0069,0.0069,0.0069,0.007,0,0.0354,0.0389,0.0404,0.0408,0.0409,0.038,0.0351,0.0285,0.0252,0.0175,0.0147,0.0072,0.0043,0.0021,0.0018,0.0012,-0.0006,-0.0013,0.0019,0.0022,0.0018,0.0023,-0.0023,-0.0023,-0.0023,-0.0023,-0.0023,0,0.0329,0.0342,0.0397,0.0406,0.0382,0.0369,0.0319,0.0275,0.0224,0.0173,0.0128,0.007,0.0032,0.0013,0.0011,0.0007,-0.0007,0.0008,0.0017,0.0009,0.0012,0.0018,0.0022,-0.0022,-0.0022,-0.0022,-0.0022,0,0.029,0.034,0.0363,0.0383,0.038,0.0357,0.0325,0.0287,0.0247,0.0183,0.0166,0.008,0.0033,0.0034,0.0005,0.0008,0.0004,0.0023,0.0042,0.0053,0.005,0.0053,0.0032,0.0032,0.0032,0.0033,0.0033,0,0.0272,0.0291,0.035,0.0364,0.0375,0.0353,0.0331,0.0297,0.0259,0.0169,0.0129,0.008,0.0025,-0.001,-0.001,0.0016,0.0025,0.0048,0.0012,0.0038,0.0049,0.0051,0.0053,0.0033,0.0033,0.0033,0.0034,0,0.0231,0.0272,0.0299,0.0337,0.0343,0.0331,0.0293,0.0255,0.0195,0.0204,0.0073,0.0031,-0.0013,-0.0052,0.0006,0.0012,0.0029,0.0051,0.005,0.0016,0.004,0.0051,0.0053,0.0035,0.0034,0.0034,0.0034,0,0.0206,0.0213,0.0268,0.0284,0.0314,0.0271,0.0248,0.0187,0.015,0.0067,0.0018,-0.004,-0.0057,-0.0053,-0.003,0.0006,-0.0004,0.0,0.0001,0.0001,-0.002,0.0007,-0.0012,0,0,0,0,0,0.0173,0.0171,0.0196,0.0209,0.0243,0.0254,0.0212,0.0186,0.0139,0.0052,0.0034,-0.0015,-0.0039,-0.0073,-0.004,-0.002,0.0017,0.0021,0.0027,0.0041,0.0039,0.0021,0,0,0,0,0,0,0.0152,0.017,0.0178,0.016,0.0161,0.0165,0.014,0.0099,0.0038,0.0003,-0.002,0.0015,-0.0008,-0.0041,-0.0031,-0.0022,-0.0013,0.0033,0.0034,0.0041,0.004,0.0039,0.002,0,0,0,0,0]}]]